User: anonymous   Login
Location: Unspecified
(0.0000°N, 0.0000°E)
Time: 01:59:29
(UTC+00:00)
Language:

STARLINK-30785 - Orbit

View from above orbital plane
View from above orbital plane
View from above satellite
View from above satellite

Ground track
Ground track

The orbit is defined by the following mean orbital elements,

1 58191U          26145.51951537 +.00000000 +00000-0 +37850-4 0 00008
2 58191  43.0042  69.6366 0001109 250.8589 109.2143 15.27575236    06
Epoch (UTC): 25 May 2026 12:28:06
Eccentricity: 0.0001109
inclination: 43.0042°
perigee height: 482 km
apogee height: 484 km
right ascension of ascending node: 69.6366°
argument of perigee: 250.8589°
revolutions per day: 15.27575236
mean anomaly at epoch: 109.2143°

The dashed part of the orbit path shows where the satellite is in the earth's shadow,  

DLR